Flag for Uzbekistan Weather past 2 weeks in Uchkuduk, Uzbekistan

Now
88 °F

Sunny.


Feels Like: 85 °F
Forecast: 65 / 90 °F
Wind: 1 mph from North

Location: Urgench

Current Time: Jul 23, 2014 at 2:01:43 PM

Latest Report: Jul 23, 2014 at 1:00 PM


Visibility: 10 mi

Pressure: 29.83 "Hg

Humidity: 22%

Dew point: 45 °F

Location of UchkudukLocation

Historic Weather in Uchkuduk — Graph

°F

Uchkuduk temperature yesterday

Maximum temperature yesterday: 88 °F (at 2:30 PM)
Minimum temperature yesterday: 68 °F (at 12:00 AM)
Average temperature yesterday: 79 °F

Past Weeks' High & Low Weather Summary

 TemperatureHumidityPressure
High104 °F (Jul 10, 3:30 PM)88% (Jul 13, 4:30 AM)29.98 "Hg (Jul 13, 4:30 AM)
Low61 °F (Jul 15, 3:00 AM)11% (Jul 20, 3:30 PM)29.45 "Hg (Jul 20, 3:30 PM)
Average81 °F36%29.75 "Hg
* Reported Jul 8 10:00 AM — Jul 23 10:30 AM, Uchkuduk, Weather by CustomWeather, © 2014

Note: Actual official high and low records may vary slightly from our data, if they occured in-between our weather recording intervals... More about our weather records

Advertising

Uchkuduk weather history for previous 24 hours

 ConditionsComfort  
Time TempWeatherWind HumidityBarometerVisibility
10:30 AM
Jul 23
82 °FSunny.6 mph35%29.83 "Hg10 mi
10:00 AM81 °FSunny.8 mph34%29.83 "Hg10 mi
9:30 AM81 °FSunny.6 mph37%29.83 "Hg10 mi
9:00 AM79 °FSunny.3 mph37%29.83 "Hg10 mi
8:30 AM75 °FSunny.1 mph41%29.83 "Hg10 mi
8:00 AM75 °FSunny.3 mph41%29.80 "Hg10 mi
7:30 AM72 °FSunny.3 mph50%29.80 "Hg10 mi
7:00 AM70 °FSunny.No wind50%29.80 "Hg10 mi
6:30 AM68 °FSunny.3 mph56%29.77 "Hg10 mi
6:00 AM68 °FSunny.No wind53%29.77 "Hg10 mi
5:30 AM68 °FClear.1 mph53%29.77 "Hg10 mi
4:30 AM70 °FClear.3 mph46%29.77 "Hg10 mi
4:00 AM68 °FClear.3 mph49%29.74 "Hg10 mi
10:00 PM
Jul 22
73 °FClear.3 mph47%29.74 "Hg10 mi
9:30 PM75 °FClear.3 mph47%29.74 "Hg10 mi
9:00 PM77 °FClear.3 mph44%29.74 "Hg10 mi
8:30 PM77 °FClear.3 mph42%29.71 "Hg10 mi
8:00 PM79 °FSunny.3 mph39%29.71 "Hg10 mi
7:30 PM82 °FSunny.3 mph32%29.71 "Hg10 mi
7:00 PM84 °FSunny.3 mph29%29.71 "Hg10 mi
6:30 PM86 °FSunny.6 mph25%29.71 "Hg10 mi
6:00 PM86 °FSunny.8 mph24%29.71 "Hg10 mi
5:30 PM88 °FSunny.8 mph19%29.71 "Hg10 mi
5:00 PM88 °FSunny.8 mph19%29.71 "Hg10 mi
4:30 PM88 °FSunny.8 mph19%29.71 "Hg10 mi
4:00 PM88 °FPassing clouds.10 mph17%29.71 "HgN/A
3:30 PM88 °FSunny.10 mph18%29.71 "Hg10 mi
3:00 PM88 °FSunny.13 mph18%N/A10 mi
2:30 PM88 °FSunny.13 mph19%29.74 "Hg10 mi
2:00 PM86 °FSunny.15 mph18%29.74 "Hg10 mi
Weather by CustomWeather, © 2014

See weather overviewHow to use our weather pages